Weather History for Naha City, Japan

Change the Weather History Date:

Saturday, February 2, 2013

  Actual Average Record
Temperature  
Mean Temperature 72 °F -  
Max Temperature 75 °F 67 °F 77 °F (2008)
Min Temperature 66 °F 58 °F 53 °F (2005)
Cooling Degree Days 6    
Growing Degree Days 22 (Base 50)    
Moisture  
Dew Point 64 °F    
Average Humidity 80    
Maximum Humidity 94    
Minimum Humidity 69    
Precipitation  
Precipitation 0.00 in - - ()
Sea Level Pressure  
Sea Level Pressure 30.20 in    
Wind  
Wind Speed 6 mph ()    
Max Wind Speed 17 mph    
Max Gust Speed 25 mph    
Visibility 6.2 miles    
Events Rain    
Averages and records for this station are not official NWS values.
T = Trace of Precipitation, MM = Missing Value Source: Averaged Metar Reports

Daily Weather History Graph

Daily Weather History Graph

Search for Another Location

Airport:

Trip Planner

Search our weather history database for the weather conditions in past years. The results will help you decide how hot, cold, wet, or windy it might be!

Date:

Astronomy

Feb. 02, 2013 Rise Set
Actual Time 7:13 AM JST 6:13 PM JST
Civil Twilight 6:49 AM JST 6:37 PM JST
Nautical Twilight 6:21 AM JST 7:04 PM JST
Astronomical Twilight 5:54 AM JST 7:32 PM JST
Moon No Moon Rise 10:42 AM JST (2/2)
Length of Visible Light 11h 47m
Length of Day
10h 59m
Waning Gibbous, 66% of the Moon is Illuminated
Feb 2
Waning Gibbous
Feb 3
Last Quarter
Feb 10
New
Feb 18
First Quarter
Feb 26
Full

Hourly Weather History & Observations

Time (JST) Temp. Dew Point Humidity Pressure Visibility Wind Dir Wind Speed Gust Speed Precip Events Conditions
12:00 AM 69.8 °F 62.6 °F 78% 30.21 in 6.2 mi SE 4.6 mph - N/A   Scattered Clouds
12:30 AM 69.8 °F 64.4 °F 83% 30.18 in 6.2 mi SSE 4.6 mph - N/A   Scattered Clouds
1:00 AM 69.8 °F 64.4 °F 83% 30.18 in 6.2 mi SE 4.6 mph - N/A Rain Light Rain Showers
1:30 AM 69.8 °F 64.4 °F 83% 30.18 in 6.2 mi SSW 8.1 mph - N/A   Scattered Clouds
2:00 AM 69.8 °F 64.4 °F 83% 30.18 in 6.2 mi SSW 9.2 mph - N/A   Partly Cloudy
2:30 AM 69.8 °F 64.4 °F 83% 30.18 in 6.2 mi SSW 8.1 mph - N/A   Partly Cloudy
3:00 AM 69.8 °F 64.4 °F 83% 30.18 in 6.2 mi SSW 6.9 mph - N/A   Partly Cloudy
3:30 AM 69.8 °F 64.4 °F 83% 30.18 in 6.2 mi SW 6.9 mph - N/A   Partly Cloudy
4:00 AM 69.8 °F 64.4 °F 83% 30.18 in 6.2 mi WSW 6.9 mph - N/A   Partly Cloudy
4:30 AM 69.8 °F 64.4 °F 83% 30.18 in 6.2 mi SW 6.9 mph - N/A   Scattered Clouds
5:00 AM 69.8 °F 64.4 °F 83% 30.15 in 6.2 mi SW 6.9 mph - N/A   Mostly Cloudy
5:30 AM 69.8 °F 64.4 °F 83% 30.18 in 6.2 mi SW 4.6 mph - N/A   Mostly Cloudy
6:00 AM 69.8 °F 66.2 °F 88% 30.18 in 6.2 mi West 4.6 mph - N/A   Mostly Cloudy
6:30 AM 68.0 °F 64.4 °F 88% 30.18 in 6.2 mi NNW 4.6 mph - N/A   Scattered Clouds
7:00 AM 68.0 °F 64.4 °F 88% 30.18 in 6.2 mi ENE 2.3 mph - N/A   Partly Cloudy
7:30 AM 68.0 °F 64.4 °F 88% 30.21 in 6.2 mi ENE 3.5 mph - N/A   Partly Cloudy
8:00 AM 69.8 °F 64.4 °F 83% 30.21 in 6.2 mi East 2.3 mph - N/A   Partly Cloudy
8:30 AM 69.8 °F 68.0 °F 94% 30.21 in 6.2 mi Variable 1.2 mph - N/A   Partly Cloudy
9:00 AM 71.6 °F 68.0 °F 88% 30.21 in 6.2 mi Variable 1.2 mph - N/A   Partly Cloudy
9:30 AM 71.6 °F 66.2 °F 83% 30.24 in 6.2 mi Variable 2.3 mph - N/A   Partly Cloudy
10:00 AM 73.4 °F 66.2 °F 78% 30.24 in 6.2 mi NNW 4.6 mph - N/A   Partly Cloudy
10:30 AM 73.4 °F 64.4 °F 73% 30.24 in 6.2 mi WNW 4.6 mph - N/A   Partly Cloudy
11:00 AM 73.4 °F 64.4 °F 73% 30.24 in 6.2 mi WNW 4.6 mph - N/A   Partly Cloudy
11:30 AM 73.4 °F 64.4 °F 73% 30.24 in 6.2 mi NW 5.8 mph - N/A   Partly Cloudy
12:00 PM 75.2 °F 64.4 °F 69% 30.21 in 6.2 mi WNW 5.8 mph - N/A   Partly Cloudy
12:30 PM 75.2 °F 64.4 °F 69% 30.21 in 6.2 mi WNW 5.8 mph - N/A   Partly Cloudy
1:00 PM 75.2 °F 64.4 °F 69% 30.21 in 6.2 mi NNW 6.9 mph - N/A   Partly Cloudy
1:30 PM 73.4 °F 66.2 °F 78% 30.18 in 6.2 mi NW 6.9 mph - N/A   Partly Cloudy
2:00 PM 75.2 °F 64.4 °F 69% 30.18 in 6.2 mi NNW 6.9 mph - N/A   Partly Cloudy
2:30 PM 71.6 °F 64.4 °F 78% 30.18 in 6.2 mi North 13.8 mph 25.3 mph N/A Rain Light Rain Showers
3:00 PM 71.6 °F 64.4 °F 78% 30.18 in 6.2 mi North 17.3 mph - N/A   Mostly Cloudy
3:30 PM 71.6 °F 64.4 °F 78% 30.15 in 6.2 mi NNE 17.3 mph - N/A   Mostly Cloudy
4:00 PM 71.6 °F 64.4 °F 78% 30.15 in 6.2 mi NNE 13.8 mph - N/A   Mostly Cloudy
4:30 PM 71.6 °F 64.4 °F 78% 30.18 in 6.2 mi North 16.1 mph - N/A   Mostly Cloudy
5:00 PM 69.8 °F 62.6 °F 78% 30.18 in 6.2 mi NNE 16.1 mph - N/A   Mostly Cloudy
5:30 PM 69.8 °F 62.6 °F 78% 30.18 in 6.2 mi NNE 13.8 mph - N/A   Mostly Cloudy
6:00 PM 69.8 °F 62.6 °F 78% 30.21 in 6.2 mi NNE 12.7 mph - N/A   Mostly Cloudy
6:30 PM 69.8 °F 62.6 °F 78% 30.21 in 6.2 mi North 12.7 mph - N/A   Mostly Cloudy
7:00 PM 69.8 °F 62.6 °F 78% 30.21 in 6.2 mi NNE 12.7 mph - N/A   Mostly Cloudy
7:30 PM 69.8 °F 62.6 °F 78% 30.21 in 6.2 mi ENE 6.9 mph - N/A   Mostly Cloudy
8:00 PM 69.8 °F 62.6 °F 78% 30.24 in 6.2 mi ENE 6.9 mph - N/A   Mostly Cloudy
8:30 PM 68.0 °F 60.8 °F 78% 30.24 in 6.2 mi NNE 10.4 mph - N/A   Mostly Cloudy
9:00 PM 68.0 °F 60.8 °F 78% 30.24 in 6.2 mi NNE 8.1 mph - N/A   Scattered Clouds
9:30 PM 68.0 °F 60.8 °F 78% 30.24 in 6.2 mi NE 6.9 mph - N/A   Scattered Clouds
10:00 PM 68.0 °F 60.8 °F 78% 30.24 in 6.2 mi NNE 9.2 mph - N/A   Mostly Cloudy
10:30 PM 68.0 °F 60.8 °F 78% 30.24 in 6.2 mi NNE 9.2 mph - N/A   Mostly Cloudy
11:00 PM 68.0 °F 59.0 °F 73% 30.24 in 6.2 mi NNE 8.1 mph - N/A   Mostly Cloudy
11:30 PM 66.2 °F 59.0 °F 78% 30.24 in 6.2 mi NNE 10.4 mph - N/A   Mostly Cloudy